Flag for Spain Weather past 2 weeks in Bilbao, Spain

Now
72 °F

Passing clouds.


Feels Like: 69 °F
Forecast: 62 / 70 °F
Wind: 9 mph from Southeast

Location: Bilbao / Sondica

Current Time: Aug 31, 2015 at 6:57:49 AM

Latest Report: Aug 31, 2015 at 6:00 AM


Visibility: N/A

Pressure: 29.86 "Hg

Humidity: 88%

Dew point: 68 °F

Location of BilbaoLocation

Historic Weather in Bilbao — Graph

°F

Bilbao temperature yesterday

Maximum temperature yesterday: 95 °F (at 1:00 PM)
Minimum temperature yesterday: 70 °F (at 5:00 AM)
Average temperature yesterday: 83 °F

Past Weeks' High & Low Weather Summary

 TemperatureHumidityPressure
High97 °F (Aug 29, 1:30 PM)100% (Aug 16, 5:30 AM)30.18 "Hg (Aug 16, 5:30 AM)
Low55 °F (Aug 16, 5:30 AM)27% (Aug 23, 6:00 PM)29.59 "Hg (Aug 23, 9:00 PM)
Average73 °F69%29.98 "Hg
* Reported Aug 16 5:00 AM — Aug 31 5:30 AM, Bilbao, Weather by CustomWeather, © 2015

Note: Actual official high and low records may vary slightly from our data, if they occured in-between our weather recording intervals... More about our weather records

Advertising

Bilbao weather history for previous 24 hours

 ConditionsComfort  
Time TempWeatherWind HumidityBarometerVisibility
5:30 AM
Mon, Aug 31
72 °FPassing clouds.10 mph88%29.86 "HgN/A
5:00 AM73 °FThunderstorms. Passing clouds.5 mph83%29.89 "HgN/A
12:30 AM73 °FPassing clouds.3 mph89%29.95 "HgN/A
12:00 AM75 °FPassing clouds.2 mph78%29.95 "HgN/A
11:30 PM
Sun, Aug 30
79 °FThunderstorms. Passing clouds.5 mph65%29.95 "HgN/A
11:00 PM82 °FThunderstorms. Passing clouds.20 mph55%29.95 "HgN/A
10:30 PM91 °FThunderstorms. Passing clouds.15 mph30%29.83 "HgN/A
10:00 PM88 °FClear.2 mph38%29.83 "Hg10 mi
9:30 PM82 °FPassing clouds.6 mph66%29.80 "HgN/A
9:00 PM82 °FSunny.No wind74%29.80 "Hg10 mi
8:30 PM84 °FSunny.1 mph70%29.80 "Hg10 mi
8:00 PM88 °FSunny.No wind62%29.80 "Hg10 mi
7:30 PM88 °FSunny.No wind59%29.83 "Hg10 mi
7:00 PM88 °FPassing clouds.No wind55%29.86 "HgN/A
6:30 PM86 °FPassing clouds.No wind59%29.86 "HgN/A
6:00 PM82 °FPassing clouds.2 mph70%29.89 "HgN/A
5:30 PM81 °FPassing clouds.2 mph70%29.89 "HgN/A
5:00 PM81 °FPassing clouds.7 mph70%29.89 "HgN/A
4:30 PM82 °FPassing clouds.9 mph66%29.92 "HgN/A
4:00 PM81 °FPassing clouds.12 mph74%29.92 "HgN/A
3:30 PM84 °FPassing clouds.13 mph58%29.92 "HgN/A
3:00 PM93 °FPassing clouds.3 mph32%29.92 "HgN/A
2:30 PM93 °FPassing clouds.8 mph32%29.92 "HgN/A
2:00 PM93 °FPassing clouds.8 mph30%29.92 "HgN/A
1:30 PM93 °FPassing clouds.7 mph30%29.92 "HgN/A
1:00 PM95 °FPassing clouds.13 mph28%29.95 "HgN/A
12:30 PM93 °FPassing clouds.9 mph30%29.95 "HgN/A
12:00 PM93 °FPassing clouds.8 mph30%29.95 "HgN/A
11:30 AM90 °FPassing clouds.8 mph33%29.95 "HgN/A
11:00 AM88 °FPassing clouds.7 mph38%29.92 "HgN/A
10:30 AM88 °FPassing clouds.5 mph35%29.92 "HgN/A
10:00 AM84 °FPassing clouds.9 mph43%29.92 "HgN/A
9:30 AM75 °FSunny.No wind78%29.92 "Hg10 mi
9:00 AM72 °FPassing clouds.No wind88%29.92 "HgN/A
8:30 AM70 °FPassing clouds.No wind94%29.95 "HgN/A
8:00 AM70 °FPassing clouds.2 mph94%29.95 "HgN/A
7:30 AM70 °FPassing clouds.1 mph94%29.95 "HgN/A
7:00 AM70 °FPassing clouds.1 mph94%29.95 "HgN/A
6:30 AM70 °FPassing clouds.2 mph94%29.95 "HgN/A
Weather by CustomWeather, © 2015

See weather overviewHow to use our weather pages